Location: McLaughlin
(0.0000°N, 0.0000°E)
Time: 20:41:02
(UTC+00:00)

N. Korean satellite - Visible Passes

Search period start: 24 June 2019 00:00
Search period end: 04 July 2019 00:00
Orbit: 455 x 510 km, 97.2° (Epoch: 24 June)

Date Brightness Start Highest point End Pass type
(mag) Time Alt. Az. Time Alt. Az. Time Alt. Az.
26 Jun 7.7 05:25:35 10° NNE 05:29:01 46° E 05:32:32 10° S visible
27 Jun 9.4 05:01:31 10° ENE 05:04:03 18° ESE 05:06:36 10° SSE visible
30 Jun 8.2 05:18:51 10° NNE 05:22:12 36° E 05:25:36 10° S visible
01 Jul 9.6 04:55:09 10° ENE 04:57:13 15° ESE 04:59:18 10° SE visible
03 Jul 6.8 05:36:43 10° NNE 05:40:20 78° E 05:44:03 10° S visible
